Regional Weather Roundup
Issued by NWS

Home | Current Version | Previous Version | Graphics & Text | Print | Product List | Glossary On
Versions: 1 2 3 4 5 6 7 8 9 10 11 12 13 14 15 16 17 18 19 20 21 22 23 24 25 26 27 28 29 30 31 32 33 34 35 36 37 38 39 40 41 42 43 44 45 46 47 48 49 50
000
ASUS45 KPSR 300200
RWRAZ

PRELIMINARY ARIZONA REGIONAL HOURLY WEATHER ROUNDUP
NATIONAL WEATHER SERVICE PHOENIX AZ
700 PM MST FRI AUG 29 2014

NOTE: FAIR INDICATES FEW OR NO CLOUDS BELOW 12,000 FEET WITH NO
SIGNIFICANT WEATHER AND/OR OBSTRUCTIONS TO VISIBILITY.

AZZ001>003-036-300300-
NORTHWEST ARIZONA

CITY           SKY/WX    TMP DP  RH WIND       PRES   REMARKS
KINGMAN        PTCLDY    89  35  14 SW8       29.92S
$$

AZZ004>008-015-016-018-300300-
NORTH CENTRAL ARIZONA

CITY           SKY/WX    TMP DP  RH WIND       PRES   REMARKS
GRAND CANYON   CLEAR     72  37  28 CALM      30.19S
WILLIAMS       CLEAR     73  37  27 N3        30.26S
PRESCOTT       PTCLDY    80  43  26 S3        30.06S
FLAGSTAFF      CLEAR     67  42  40 CALM      30.24R
PAYSON         CLEAR     82  37  20 CALM      30.08S
PAGE           PTCLDY    86  32  14 CALM      30.00S
$$

AZZ009>014-017-300300-
NORTHEAST ARIZONA

CITY           SKY/WX    TMP DP  RH WIND       PRES   REMARKS
WINSLOW        NOT AVBL
SAINT JOHNS    CLEAR     77  40  26 S3        30.10R
WINDOW ROCK    CLEAR     75  32  20 NE9       30.18S
$$

AZZ023-300300-
GREATER PHOENIX AREA

CITY           SKY/WX    TMP DP  RH WIND       PRES   REMARKS
PHOENIX        CLEAR    103  40  11 SW8       29.70S
GLENDALE       PTCLDY   102  39  11 SW8       29.72S
DEER VALLEY    CLEAR    101  37  11 W8        29.73R
SCOTTSDALE     CLEAR    101  41  12 SW5       29.75R
MESA-FALCON    CLEAR    100  41  13 W7        29.73R
MESA-GATEWAY   PTCLDY   100  37  11 SW8       29.75S
CHANDLER       CLEAR    102  41  12 SW8       29.72S
$$

AZZ027-028-300300-
SOUTHWEST MARICOPA COUNTY AND PINAL COUNTY

CITY           SKY/WX    TMP DP  RH WIND       PRES   REMARKS
CASA GRANDE    CLEAR     99  39  12 W3        29.76S
$$

AZZ503-504-507>509-300300-
SOUTHEAST ARIZONA

CITY           SKY/WX    TMP DP  RH WIND       PRES   REMARKS
TUCSON         CLEAR     96  35  11 NW6       29.86S
RYAN FIELD       N/A     93  43  17 NW7       29.85R
NOGALES        MOCLDY    84  52  33 W3        29.96R
SIERRA VISTA   PTCLDY    82  48  30 CALM      30.04R
SAFFORD        CLEAR     91  40  16 SW5       29.87S
$$

AZZ020-021-025-026-031-300300-
SOUTHWEST ARIZONA

CITY           SKY/WX    TMP DP  RH WIND       PRES   REMARKS
YUMA           CLEAR    107  38   9 W7        29.64S HX 101
$$

CAZ031-033-041-043-047-048-061-300300-
SOUTHERN CALIFORNIA

CITY           SKY/WX    TMP DP  RH WIND       PRES   REMARKS
DOWNTOWN L.A.  CLEAR     76  56  49 W6        29.79F
L.A. AIRPORT   CLEAR     71  61  70 SW9       29.81S
SAN DIEGO      PTCLDY    73  63  70 NW10      29.83R
BURBANK        CLEAR     83  51  33 S7        29.80S
ONTARIO        CLEAR     88  50  27 W10       29.80S
RIVERSIDE      CLEAR     87  47  24 W9        29.80R
PALM SPRINGS   CLEAR    106  42  11 NW18      29.67S HX 101
EL CENTRO NAS  CLEAR    105  47  14 E5        29.61S HX 101
IMPERIAL       CLEAR    108  36   8 E5        29.61S HX 101
BLYTHE         CLEAR    105  39  10 SE6       29.66S
$$

NVZ020-UTZ003-300300-
SOUTHERN NEVADA-UTAH

CITY           SKY/WX    TMP DP  RH WIND       PRES   REMARKS
LAS VEGAS      NOT AVBL
SALT LAKE CITY MOCLDY    80  40  23 S5        29.95F
$$

NMZ009-TXZ055-300300-
NEW MEXICO-WEST TEXAS

CITY           SKY/WX    TMP DP  RH WIND       PRES   REMARKS
ALBUQUERQUE    PTCLDY    78  40  25 SE8       30.08S
EL PASO        PTCLDY    87  44  22 SE5       29.96R
$$


........................KEY........................
SKY/WX - SKY CONDITION/WEATHER
TMP    - TEMPERATURE IN FAHRENHEIT
DP     - DEW POINT IN FAHRENHEIT
RH     - RELATIVE HUMIDITY IN PERCENT
WIND   - DIRECTION AND SPEED IN MILES PER HOUR (MPH)
VRB    - VARIABLE WIND DIRECTION
PRES   - MEAN SEA LEVEL PRESSURE IN INCHES OF MERCURY
         F - FALLING PRESSURE   R - RISING PRESSURE
         S - STEADY PRESSURE
VSB    - VISIBILITY IN MILES
HX     - HEAT INDEX IN FAHRENHEIT
WCI    - WIND CHILL INDEX IN FAHRENHEIT
TC     - TEMPERATURE IN CELSIUS WHICH IS ALSO KNOWN AS
         TEMPERATURE IN CENTIGRADE
AFB    - AIR FORCE BASE
         LUKE AFB IS LUKE AIR FORCE BASE
         DAVIS-MONTHAN IS DAVIS-MONTHAN AIR FORCE BASE
NAS    - NAVAL AIR STATION
         EL CENTRO NAS IS EL CENTRO NAVAL AIR STATION
N/A    - NOT AVAILABLE


USA.gov is the U.S. government's official web portal to all federal, state and local government web resources and services.